This is the latest recevied weather packets stored in our database for station/object K5NAN. If no packets are shown the sender has not sent any weather packets the latest 1 day(s).
| Time | Temp. | Humidity | Pressure | Rain* | Wind** | Luminosity | Snow |
|---|---|---|---|---|---|---|---|
| 1836274593 | 24.44° C | 77% | 1015 hPa | 0 mm | 0.45 m/s, 99° | 0 W/m² | - |
| 1836274447 | 24.44° C | 78% | 1015.3 hPa | 0 mm | 0.45 m/s, 111° | 0 W/m² | - |
| 1836274292 | 24.44° C | 77% | 1015.1 hPa | 0 mm | 0.89 m/s, 110° | 0 W/m² | - |
| 1836274145 | 24.44° C | 77% | 1015 hPa | 0 mm | 0 m/s | 0 W/m² | - |
| 1836273991 | 24.44° C | 77% | 1015 hPa | 0 mm | 0.89 m/s, 114° | 0 W/m² | - |
| 1778048520 | 14.44° C | 80% | 1008.5 hPa | 0 mm | 2.24 m/s, 317° | 0 W/m² | - |
| 1778048216 | 14.44° C | 80% | 1008.2 hPa | 0 mm | 3.13 m/s, 328° | 0 W/m² | - |
| 1778047914 | 14.44° C | 80% | 1008.6 hPa | 0 mm | 2.24 m/s, 340° | 0 W/m² | - |
| 1778047613 | 14.44° C | 80% | 1008.5 hPa | 0 mm | 1.79 m/s, 354° | 0 W/m² | - |
| 1778047309 | 14.44° C | 81% | 1008.4 hPa | 0 mm | 1.34 m/s, 303° | 0 W/m² | - |
| 1778047006 | 14.44° C | 81% | 1008.4 hPa | 0 mm | 1.79 m/s, 359° | 0 W/m² | - |
| 1778046703 | 14.44° C | 80% | 1008.5 hPa | 0 mm | 1.34 m/s, 7° | 0 W/m² | - |
| 1778046400 | 14.44° C | 81% | 1008.3 hPa | 0 mm | 2.68 m/s, 339° | 0 W/m² | - |
| 1778046096 | 15° C | 81% | 1008.6 hPa | 0 mm | 2.24 m/s, 322° | 0 W/m² | - |
| 1778045794 | 15° C | 81% | 1008.4 hPa | 0 mm | 1.79 m/s, 280° | 0 W/m² | - |
| 1778045492 | 15° C | 81% | 1008.3 hPa | 0 mm | 0.89 m/s, 355° | 0 W/m² | - |
| 1778045190 | 15° C | 81% | 1008.3 hPa | 0 mm | 3.58 m/s, 359° | 0 W/m² | - |
| 1778044888 | 15° C | 82% | 1008.3 hPa | 0 mm | 1.79 m/s, 301° | 0 W/m² | - |
| 1778044584 | 15° C | 82% | 1008.2 hPa | 0 mm | 1.34 m/s, 274° | 0 W/m² | - |
| 1778044281 | 15.56° C | 82% | 1008.2 hPa | 0 mm | 1.79 m/s, 322° | 0 W/m² | - |
| 1778043979 | 15.56° C | 82% | 1008.2 hPa | 0 mm | 2.24 m/s, 324° | 0 W/m² | - |
| 1778043676 | 15.56° C | 82% | 1008.3 hPa | 0 mm | 2.24 m/s, 315° | 0 W/m² | - |
| 1778043373 | 15.56° C | 82% | 1008.1 hPa | 0 mm | 2.24 m/s, 301° | 0 W/m² | - |
| 1778043069 | 15.56° C | 82% | 1008.2 hPa | 0 mm | 1.79 m/s, 352° | 0 W/m² | - |
| 1778042767 | 15.56° C | 82% | 1008 hPa | 0 mm | 1.79 m/s, 305° | 0 W/m² | - |
* Rain latest hour (hover to see other rain measurements)
** Current wind speed in m/s (hover to see current wind gust speed)